"Pseudo-MPEC" for ZTF10DD

Created 2026 Apr 17 11:35:15 UT using Find_Orb

Click here for an explanation of pseudo-MPECs

 
 Astrometry: 
     ZTF10DD*0C2026 04 04.20436911 09 09.083-10 10 57.77   ~44Ho 13.32gUNEOCPI41
     ZTF10DD 0C2026 04 04.20471611 09 15.883-10 12 32.05   ~44Ho 13.32gUNEOCPI41
     ZTF10DD 0C2026 04 04.24358111 22 09.855-13 10 30.42   ~44Ho 12.61iUNEOCPI41
     ZTF10DD 0C2026 04 04.24392811 22 16.967-13 12 05.16   ~44Ho 12.61iUNEOCPI41

Station data:
(I41) Palomar Mountain--ZTF  (N33.357336 W116.859780)  US/California.
   Observers B. T. Bolin, Z. T. F. Collaboration. Measurers B. T. Bolin,
   Z.-Y. Lin, F. J. Masci. 1.2-m f/2.4 Schmidt.

Orbital elements:  ZTF10DD
   Perigee 2026 Apr 4.466302 +/- 23.2 TT = 11:11:28.4 (JD 2461134.966302)
Epoch 2026 Apr  4.0 TT = JDT 2461134.5                           AutoNEOCP
q276609.9953 +/- 1.15e+7            (J2000 equator)
H   25.05 G 0.15                    Peri.  232.060831 +/- 48
                                    Node   336.385718 +/- 47
e  61.65920385 +/- 0.245            Incl.   42.140920 +/- 2.8
From 4 observations 2026 Apr. 4 (57.0 min); mean residual 2".14
Residuals in arcseconds: 
260404 I41  2.4-  1.7+    260404 I41  1.8+  2.5-    
260404 I41  2.4+  1.7-    260404 I41  1.9-  2.5+    

Ephemerides (geocentric):
Date (UTC) HH   RA             Dec           delta  r     elong  mag " sig PA
---- --------  ------------   ------------  ------ ------ -----  --- --------
2026 04 17 12  20 24 11.428   -24 37 27.66  .06985 0.9998  84.7 22.5  48d 105
2026 04 17 13  20 24 12.709   -24 37 16.65  .07007 0.9998  84.7 22.5  48d 105
2026 04 17 14  20 24 13.983   -24 37 05.72  .07029 0.9999  84.7 22.5  48d 105
2026 04 17 15  20 24 15.249   -24 36 54.84  .07051 0.9999  84.8 22.5  48d 105
2026 04 17 16  20 24 16.509   -24 36 44.04  .07073 1.0000  84.8 22.5  48d 105
2026 04 17 17  20 24 17.760   -24 36 33.30  .07095 1.0000  84.8 22.5  48d 105
2026 04 17 18  20 24 19.005   -24 36 22.62  .07117 1.0001  84.9 22.5  48d 105
2026 04 17 19  20 24 20.243   -24 36 12.00  .07138 1.0001  84.9 22.5  48d 105
2026 04 17 20  20 24 21.473   -24 36 01.45  .07160 1.0002  84.9 22.5  48d 105
2026 04 17 21  20 24 22.696   -24 35 50.96  .07182 1.0002  85.0 22.6  49d 105
2026 04 17 22  20 24 23.913   -24 35 40.53  .07204 1.0003  85.0 22.6  49d 105
2026 04 17 23  20 24 25.122   -24 35 30.17  .07226 1.0003  85.0 22.6  49d 105
2026 04 18 00  20 24 26.325   -24 35 19.86  .07248 1.0004  85.1 22.6  49d 105
2026 04 18 01  20 24 27.521   -24 35 09.62  .07270 1.0004  85.1 22.6  49d 105
2026 04 18 02  20 24 28.710   -24 34 59.43  .07291 1.0005  85.2 22.6  49d 105
2026 04 18 03  20 24 29.892   -24 34 49.31  .07313 1.0005  85.2 22.6  49d 105
2026 04 18 04  20 24 31.068   -24 34 39.24  .07335 1.0006  85.2 22.6  49d 105
2026 04 18 05  20 24 32.237   -24 34 29.23  .07357 1.0006  85.3 22.6  49d 105
2026 04 18 06  20 24 33.399   -24 34 19.28  .07379 1.0007  85.3 22.6  49d 105
2026 04 18 07  20 24 34.555   -24 34 09.39  .07401 1.0008  85.3 22.6  49d 105
2026 04 18 08  20 24 35.705   -24 33 59.56  .07423 1.0008  85.4 22.6  49d 105
2026 04 18 09  20 24 36.848   -24 33 49.78  .07444 1.0009  85.4 22.6  49d 105
2026 04 18 10  20 24 37.984   -24 33 40.05  .07466 1.0009  85.4 22.6  50d 105
2026 04 18 11  20 24 39.115   -24 33 30.39  .07488 1.0010  85.5 22.6  50d 105
2026 04 18 12  20 24 40.239   -24 33 20.77  .07510 1.0010  85.5 22.6  50d 105
2026 04 18 13  20 24 41.356   -24 33 11.22  .07532 1.0011  85.5 22.6  50d 105
2026 04 18 14  20 24 42.468   -24 33 01.71  .07553 1.0012  85.6 22.6  50d 105
2026 04 18 15  20 24 43.573   -24 32 52.26  .07575 1.0012  85.6 22.6  50d 105
2026 04 18 16  20 24 44.672   -24 32 42.87  .07597 1.0013  85.7 22.6  50d 104
2026 04 18 17  20 24 45.765   -24 32 33.52  .07619 1.0013  85.7 22.6  50d 104
2026 04 18 18  20 24 46.852   -24 32 24.23  .07641 1.0014  85.7 22.6  50d 104
2026 04 18 19  20 24 47.933   -24 32 15.00  .07662 1.0015  85.8 22.7  50d 104
2026 04 18 20  20 24 49.008   -24 32 05.81  .07684 1.0015  85.8 22.7  51d 104
2026 04 18 21  20 24 50.077   -24 31 56.67  .07706 1.0016  85.8 22.7  51d 104
2026 04 18 22  20 24 51.141   -24 31 47.59  .07728 1.0016  85.9 22.7  51d 104
2026 04 18 23  20 24 52.198   -24 31 38.55  .07750 1.0017  85.9 22.7  51d 104
2026 04 19 00  20 24 53.249   -24 31 29.57  .07771 1.0018  85.9 22.7  51d 104
2026 04 19 01  20 24 54.295   -24 31 20.64  .07793 1.0018  86.0 22.7  51d 104
2026 04 19 02  20 24 55.335   -24 31 11.75  .07815 1.0019  86.0 22.7  51d 104
2026 04 19 03  20 24 56.370   -24 31 02.92  .07837 1.0019  86.1 22.7  51d 104
2026 04 19 04  20 24 57.398   -24 30 54.13  .07858 1.0020  86.1 22.7  51d 104
2026 04 19 05  20 24 58.421   -24 30 45.39  .07880 1.0021  86.1 22.7  52d 103
2026 04 19 06  20 24 59.439   -24 30 36.70  .07902 1.0021  86.2 22.7  52d 103
2026 04 19 07  20 25 00.450   -24 30 28.05  .07924 1.0022  86.2 22.7  52d 103
2026 04 19 08  20 25 01.457   -24 30 19.46  .07945 1.0023  86.2 22.7  52d 103
2026 04 19 09  20 25 02.457   -24 30 10.91  .07967 1.0023  86.3 22.7  52d 103
2026 04 19 10  20 25 03.453   -24 30 02.41  .07989 1.0024  86.3 22.7  52d 103
2026 04 19 11  20 25 04.443   -24 29 53.95  .08011 1.0025  86.3 22.7  52d 103